time_stamp(utc),avg(mph),gust(mph),direction(deg),12m_air_temp(f),sonic_u(cm/s),sonic_v(cm/s),sonic_w(cm/s),pressure,2m_air_temp(f),pyranometer(W/m^2)
"2018-12-10 00:02:07+00",11.2,12.2,,32.7,10,484,13,1022.1,32.2,0
"2018-12-10 00:07:07+00",11.9,13.9,,32.7,48,517,2,1022.05,32.1,0
"2018-12-10 00:12:07+00",11.6,13.6,,32.6,46,506,13,1021.82,32.1,0
"2018-12-10 00:17:07+00",10.7,12.7,,32.6,48,462,12,1021.61,32.1,0
"2018-12-10 00:22:07+00",11.9,13.9,,32.6,70,504,2,1021.46,32,0
"2018-12-10 00:27:07+00",11.7,13.7,,32.6,34,512,14,1021.48,32,0
"2018-12-10 00:32:07+00",11.4,14.4,,32.6,54,486,9,1021.47,32,0
"2018-12-10 00:37:07+00",11.3,14.3,,32.5,43,487,12,1021.37,32,0
"2018-12-10 00:42:07+00",9.6,11.6,,32.5,30,415,7,1021.42,32,0
"2018-12-10 00:47:07+00",8.8,10.8,,32.4,26,375,11,1021.55,31.9,0
"2018-12-10 00:52:07+00",9.8,10.8,,32.4,40,422,12,1021.5,31.8,0
"2018-12-10 00:57:07+00",9.2,11.2,,32.4,19,391,7,1021.53,31.8,0
"2018-12-10 01:02:07+00",9.7,10.7,,32.3,45,419,3,1021.32,31.7,0
"2018-12-10 01:07:07+00",10.5,12.5,,32.3,56,453,7,1021.17,31.7,0
"2018-12-10 01:12:07+00",10.1,11.1,,32.3,59,432,8,1021.1,31.7,0
"2018-12-10 01:17:07+00",9.4,10.4,,32.3,64,398,11,1021.31,31.7,0
"2018-12-10 01:22:07+00",9.8,11.8,,32.3,56,414,6,1021.31,31.6,0
"2018-12-10 01:27:07+00",10.3,11.3,,32.4,53,429,6,1021.11,31.7,0
"2018-12-10 01:32:07+00",11.6,13.6,,32.3,37,503,-1,1021.06,31.6,0
"2018-12-10 01:37:07+00",9.3,11.3,,32.3,53,402,5,1021,31.6,0
"2018-12-10 01:42:07+00",9.3,10.3,,32.2,79,377,5,1021.06,31.6,0
"2018-12-10 01:47:07+00",8.6,9.6,,32.3,87,346,-2,1020.89,31.6,0
"2018-12-10 01:52:07+00",8.4,9.4,,32.3,91,337,-5,1020.99,31.6,0
"2018-12-10 01:57:07+00",9.2,10.2,,32.4,79,384,3,1020.85,31.6,0
"2018-12-10 02:02:07+00",10.0,11.0,,32.4,97,412,1,1020.76,31.7,0
"2018-12-10 02:07:07+00",10.3,12.3,,32.5,87,424,6,1020.4,31.8,0
"2018-12-10 02:12:07+00",10.3,12.3,,32.5,97,429,-2,1020.44,31.8,0
"2018-12-10 02:17:07+00",9.5,11.5,,32.4,95,397,1,1020.35,31.8,0
"2018-12-10 02:22:07+00",8.8,10.8,,32.4,91,350,-3,1020.33,31.8,0
"2018-12-10 02:27:07+00",7.9,8.9,,32.3,93,312,6,1020.26,31.8,0
"2018-12-10 02:32:07+00",9.1,12.1,,32.3,137,346,-1,1020.23,31.8,0
"2018-12-10 02:37:07+00",11.3,14.3,,32.3,141,457,-2,1020.16,31.7,0
"2018-12-10 02:42:07+00",11.2,13.2,,32.2,180,430,-3,1020.02,31.7,0
"2018-12-10 02:47:07+00",11.0,14.0,,32.2,121,443,4,1019.98,31.6,0
"2018-12-10 02:52:07+00",10.6,12.6,,32.1,103,437,-9,1019.94,31.6,0
"2018-12-10 02:57:07+00",10.6,12.6,,32.1,142,422,-4,1019.75,31.6,0
"2018-12-10 03:02:07+00",9.3,11.3,,32.1,127,365,8,1019.66,31.6,0
"2018-12-10 03:07:07+00",9.6,12.6,,32.1,130,374,4,1019.52,31.6,0
"2018-12-10 03:12:07+00",10.9,12.9,,32.1,123,435,-2,1019.35,31.6,0
"2018-12-10 03:17:07+00",11.0,13.0,,32.1,114,451,1,1019.13,31.6,0
"2018-12-10 03:22:07+00",11.1,13.1,,32.1,134,438,9,1019.02,31.6,0
"2018-12-10 03:27:07+00",11.4,13.4,,32.1,157,448,-2,1018.8,31.6,0
"2018-12-10 03:32:07+00",11.1,14.1,,32.1,180,430,4,1018.59,31.6,0
"2018-12-10 03:37:07+00",11.9,12.9,,32,207,457,2,1018.26,31.5,0
"2018-12-10 03:42:07+00",10.5,13.5,,31.9,171,409,-11,1018.11,31.4,0
"2018-12-10 03:47:07+00",9.8,10.8,,31.9,195,368,3,1018.4,31.3,0
"2018-12-10 03:52:07+00",9.5,11.5,,31.8,157,364,-1,1018.48,31.2,0
"2018-12-10 03:57:07+00",8.5,10.5,,31.8,121,334,6,1018.37,31.2,0
"2018-12-10 04:02:07+00",7.9,8.9,,31.8,124,304,7,1018.56,31.1,0
"2018-12-10 04:07:07+00",7.9,8.9,,31.8,127,295,-4,1018.53,31.1,0
"2018-12-10 04:12:07+00",9.0,10.0,,31.9,152,348,2,1018.36,31.1,0
"2018-12-10 04:17:07+00",9.7,10.7,,32,104,391,5,1018.34,31.1,0
"2018-12-10 04:22:07+00",10.9,11.9,,32,99,453,3,1018.2,31.2,0
"2018-12-10 04:27:07+00",11.3,13.3,,32.1,118,461,-1,1018.08,31.2,0
"2018-12-10 04:32:07+00",9.5,10.5,,32,41,409,12,1018.25,31.2,0
"2018-12-10 04:37:07+00",9.9,10.9,,32,100,408,10,1018.3,31.1,0
"2018-12-10 04:42:07+00",12.1,14.1,,31.9,89,506,9,1018.32,31,0
"2018-12-10 04:47:07+00",12.8,14.8,,31.9,121,526,4,1018.23,30.9,0
"2018-12-10 04:52:07+00",12.4,14.4,,31.7,70,529,5,1018.26,30.9,0
"2018-12-10 04:57:07+00",12.3,14.3,,31.6,111,512,-3,1018.22,30.8,0
"2018-12-10 05:02:07+00",11.9,13.9,,31.6,119,489,-1,1018.14,30.8,0
"2018-12-10 05:07:07+00",9.7,10.7,,31.6,105,391,2,1018.14,30.9,0
"2018-12-10 05:12:07+00",9.7,10.7,,31.5,97,400,-6,1018.22,30.8,0
"2018-12-10 05:17:07+00",10.3,11.3,,31.4,68,431,5,1018.02,30.7,0
"2018-12-10 05:22:07+00",11.1,12.1,,31.3,87,461,9,1017.9,30.5,0
"2018-12-10 05:27:07+00",10.4,12.4,,31.3,84,433,2,1017.85,30.4,0
"2018-12-10 05:32:07+00",9.1,11.1,,31.1,63,378,8,1018.05,30.1,0
"2018-12-10 05:37:07+00",9.7,10.7,,31.1,68,412,6,1017.85,30,0
"2018-12-10 05:42:07+00",11.2,12.2,,30.9,-1,487,8,1017.59,29.7,0
"2018-12-10 05:47:07+00",12.0,14.0,,30.7,3,521,10,1017.35,29.5,0
"2018-12-10 05:52:07+00",10.9,11.9,,30.5,60,462,4,1017.39,29.3,0
"2018-12-10 05:57:07+00",10.1,12.1,,30.2,18,433,15,1017.26,29.2,0
"2018-12-10 06:02:07+00",11.5,13.5,,30.2,38,495,9,1017.02,29,0
"2018-12-10 06:07:07+00",11.3,13.3,,30.1,41,484,16,1016.87,28.9,0
"2018-12-10 06:12:07+00",11.6,12.6,,30.1,39,502,9,1016.7,28.8,0
"2018-12-10 06:17:07+00",12.0,13.0,,30,46,523,9,1016.5,28.8,0
"2018-12-10 06:22:07+00",12.5,14.5,,30.1,41,540,11,1016.38,28.9,0
"2018-12-10 06:27:07+00",13.2,16.2,,30.2,50,573,8,1016.28,29,0
"2018-12-10 06:32:07+00",12.8,14.8,,30.1,46,560,7,1016.34,29,0
"2018-12-10 06:37:07+00",13.3,14.3,,30.2,40,577,10,1016.45,29,0
"2018-12-10 06:42:07+00",13.3,16.3,,30.1,8,582,7,1016.41,28.9,0
"2018-12-10 06:47:07+00",14.5,15.5,,29.9,-12,636,15,1016.46,28.8,0
"2018-12-10 06:52:07+00",13.9,15.9,,29.8,14,612,8,1016.41,28.6,0
"2018-12-10 06:57:07+00",13.5,15.5,,29.5,1,590,11,1016.5,28.5,0
"2018-12-10 07:02:07+00",12.8,14.8,,29.5,33,558,15,1016.51,28.5,0
"2018-12-10 07:07:07+00",11.9,13.9,,29.5,37,522,20,1016.66,28.4,0
"2018-12-10 07:12:07+00",12.5,14.5,,29.5,37,540,9,1016.63,28.4,0
"2018-12-10 07:17:07+00",12.3,14.3,,29.3,-4,547,5,1016.7,28.3,0
"2018-12-10 07:22:07+00",12.7,15.7,,29.2,21,553,17,1016.55,28.1,0
"2018-12-10 07:27:07+00",12.8,14.8,,29,12,557,8,1016.45,27.9,0
"2018-12-10 07:32:07+00",12.4,14.4,,28.8,32,542,13,1016.26,27.8,0
"2018-12-10 07:37:07+00",13.5,15.5,,28.9,76,580,5,1016.18,27.8,0
"2018-12-10 07:42:07+00",11.6,13.6,,28.8,75,495,5,1016.32,27.7,0
"2018-12-10 07:47:07+00",11.3,13.3,,28.5,46,488,5,1016.12,27.5,0
"2018-12-10 07:52:07+00",12.1,14.1,,28.5,46,523,10,1016,27.4,0
"2018-12-10 07:57:07+00",12.4,13.4,,28.4,18,539,16,1015.96,27.2,0
"2018-12-10 08:02:07+00",11.4,13.4,,28.4,27,492,14,1016.01,27.1,0
"2018-12-10 08:07:07+00",10.7,12.7,,28.5,35,453,6,1016.01,27.1,0
"2018-12-10 08:12:07+00",10.6,12.6,,28.5,33,459,12,1015.89,27.1,0
"2018-12-10 08:17:07+00",10.6,11.6,,28.5,35,458,7,1015.85,27,0
"2018-12-10 08:22:07+00",11.8,14.8,,28.4,4,515,10,1015.57,27,0
"2018-12-10 08:27:07+00",12.2,14.2,,28.4,7,528,13,1015.54,27,0
"2018-12-10 08:32:07+00",11.8,13.8,,28.5,28,507,15,1015.49,27,0
"2018-12-10 08:37:07+00",14.3,16.3,,28.8,25,623,19,1015.45,27.3,0
"2018-12-10 08:42:07+00",15.4,18.4,,28.7,23,665,14,1015.32,27.4,0
"2018-12-10 08:47:07+00",16.1,19.1,,28.7,25,703,11,1015.31,27.4,0
"2018-12-10 08:52:07+00",16.8,19.8,,28.7,13,732,-1,1015.47,27.5,0
"2018-12-10 08:57:07+00",15.4,17.4,,28.5,18,677,10,1015.65,27.5,0
"2018-12-10 09:02:07+00",15.0,18.0,,28.4,0,663,13,1015.7,27.4,0
"2018-12-10 09:07:07+00",14.1,16.1,,28.3,12,626,26,1015.66,27.3,0
"2018-12-10 09:12:07+00",12.2,15.2,,28.1,69,520,8,1015.85,27.2,0
"2018-12-10 09:17:07+00",14.2,16.2,,28.2,85,605,-3,1015.84,27.2,0
"2018-12-10 09:22:07+00",10.5,12.5,,28.1,56,444,3,1015.85,27.1,0
"2018-12-10 09:27:07+00",12.0,14.0,,28,58,517,6,1015.82,27,0
"2018-12-10 09:32:07+00",10.5,12.5,,28,29,455,8,1015.83,27,0
"2018-12-10 09:37:07+00",10.9,13.9,,27.8,25,464,11,1015.82,26.9,0
"2018-12-10 09:42:07+00",11.9,14.9,,27.8,20,517,12,1015.74,26.8,0
"2018-12-10 09:47:07+00",13.3,16.3,,27.8,44,590,7,1015.64,26.8,0
"2018-12-10 09:52:07+00",14.9,16.9,,27.9,14,654,10,1015.62,26.8,0
"2018-12-10 09:57:07+00",14.8,18.8,,27.7,56,641,3,1015.64,26.8,0
"2018-12-10 10:02:07+00",15.4,17.4,,27.8,20,672,7,1015.58,26.8,0
"2018-12-10 10:07:07+00",14.5,16.5,,27.9,10,637,20,1015.61,27,0
"2018-12-10 10:12:07+00",14.6,17.6,,28,12,643,16,1015.64,27.1,0
"2018-12-10 10:17:07+00",15.9,17.9,,28,29,695,6,1015.67,27.1,0
"2018-12-10 10:22:07+00",14.3,16.3,,28,22,627,23,1015.66,27.2,0
"2018-12-10 10:27:07+00",14.4,17.4,,28.1,20,635,15,1015.78,27.3,0
"2018-12-10 10:32:07+00",16.0,19.0,,28,36,692,-7,1015.85,27.3,0
"2018-12-10 10:37:07+00",16.4,18.4,,28.1,41,713,10,1015.89,27.4,0
"2018-12-10 10:42:07+00",13.2,16.2,,28,36,576,24,1015.83,27.4,0
"2018-12-10 10:47:07+00",15.0,18.0,,27.9,41,658,14,1015.83,27.4,0
"2018-12-10 10:52:07+00",15.1,18.1,,28,28,661,9,1015.87,27.4,0
"2018-12-10 10:57:07+00",15.3,18.3,,28.2,21,670,7,1015.98,27.4,0
"2018-12-10 11:02:07+00",14.8,16.8,,28.3,28,645,9,1015.97,27.5,0
"2018-12-10 11:07:07+00",14.1,18.1,,28.3,54,601,23,1016.02,27.5,0
"2018-12-10 11:12:07+00",14.7,16.7,,28.4,62,636,6,1016.01,27.6,0
"2018-12-10 11:17:07+00",13.9,15.9,,28.4,88,592,10,1016.13,27.6,0
"2018-12-10 11:22:07+00",13.7,16.7,,28.6,71,596,12,1016.25,27.7,0
"2018-12-10 11:27:07+00",14.8,17.8,,28.8,84,646,13,1016.22,27.7,0
"2018-12-10 11:32:07+00",13.7,15.7,,28.7,54,591,26,1016.29,27.8,0
"2018-12-10 11:37:07+00",15.3,17.3,,28.8,44,672,8,1016.29,27.7,0
"2018-12-10 11:42:07+00",15.2,17.2,,28.9,97,648,8,1016.28,27.8,0
"2018-12-10 11:47:07+00",14.6,17.6,,28.9,52,631,15,1016.38,27.8,0
"2018-12-10 11:52:07+00",15.3,17.3,,28.7,61,664,23,1016.42,27.7,0
"2018-12-10 11:57:07+00",14.2,16.2,,28.6,26,618,12,1016.55,27.7,0
"2018-12-10 12:02:07+00",13.4,16.4,,28.8,18,584,20,1016.64,27.7,0
"2018-12-10 12:07:07+00",14.9,16.9,,28.6,0,652,18,1016.63,27.7,0
"2018-12-10 12:12:07+00",14.8,17.8,,28.4,26,648,14,1016.54,27.5,0
"2018-12-10 12:17:07+00",14.7,16.7,,28.1,25,638,17,1016.58,27.3,0
"2018-12-10 12:22:07+00",13.8,15.8,,28,5,612,8,1016.53,27.2,0
"2018-12-10 12:27:07+00",14.9,15.9,,27.9,2,658,5,1016.56,27.1,0
"2018-12-10 12:32:07+00",13.0,15.0,,27.9,13,579,16,1016.71,27.1,0
"2018-12-10 12:37:07+00",14.2,17.2,,27.9,26,614,11,1016.71,27,0
"2018-12-10 12:42:07+00",14.1,18.1,,27.9,-3,613,9,1016.78,27.1,1.2
"2018-12-10 12:47:07+00",14.0,16.0,,27.9,25,617,13,1016.77,27.3,0
"2018-12-10 12:52:07+00",14.0,17.0,,28,15,621,2,1016.92,27.5,15.3
"2018-12-10 12:57:07+00",13.3,15.3,,28.1,-12,584,15,1016.91,27.9,35.4
"2018-12-10 13:02:07+00",12.2,14.2,,28.2,-2,536,25,1017.02,28.3,35.3
"2018-12-10 13:07:07+00",13.0,16.0,,28.3,-20,566,-7,1017.06,28.5,27
"2018-12-10 13:12:07+00",13.8,15.8,,28.4,-26,605,12,1017.22,28.6,8.5
"2018-12-10 13:17:07+00",12.7,14.7,,28.5,-17,559,16,1017.22,28.5,41.1
"2018-12-10 13:22:07+00",12.0,14.0,,28.8,-6,527,21,1017.22,29,84.8
"2018-12-10 13:27:07+00",11.6,13.6,,29.2,-36,510,23,1017.22,29.8,80.9
"2018-12-10 13:32:07+00",12.3,14.3,,29.4,-14,536,25,1017.26,30.4,74.1
"2018-12-10 13:37:07+00",15.2,17.2,,29.6,-43,661,11,1017.24,30.8,106.9
"2018-12-10 13:42:07+00",12.8,15.8,,30,-57,565,17,1017.26,31.3,120.7
"2018-12-10 13:47:07+00",13.1,16.1,,30.2,-35,569,7,1017.34,31.9,131.4
"2018-12-10 13:52:07+00",13.3,15.3,,30.5,-14,575,16,1017.47,32.3,142.9
"2018-12-10 13:57:07+00",12.1,15.1,,30.9,-8,522,4,1017.48,32.7,151.7
"2018-12-10 14:02:07+00",10.9,14.9,,31.6,38,479,26,1017.6,33.3,159.2
"2018-12-10 14:07:07+00",17.0,19.0,,32.2,103,732,14,1017.55,33.8,167.6
"2018-12-10 14:12:07+00",18.0,20.0,,32.6,116,775,-4,1017.68,34.1,175.5
"2018-12-10 14:17:07+00",14.2,17.2,,32.9,123,595,10,1017.76,34.3,182.5
"2018-12-10 14:22:07+00",14.0,17.0,,33.1,124,591,4,1017.8,34.7,131.8
"2018-12-10 14:27:07+00",14.3,16.3,,33.5,94,612,13,1017.83,35,198.9
"2018-12-10 14:32:07+00",18.7,20.7,,33.5,120,802,2,1017.91,35.1,210.8
"2018-12-10 14:37:07+00",17.0,19.0,,33.8,130,725,6,1017.92,35.3,174.1
"2018-12-10 14:42:07+00",17.9,20.9,,33.8,180,729,-10,1017.95,35.4,132.2
"2018-12-10 14:47:07+00",18.8,21.8,,34,151,806,-6,1018.02,35.6,198.4
"2018-12-10 14:52:07+00",14.6,17.6,,34.3,186,585,-3,1018.07,35.8,195.3
"2018-12-10 14:57:07+00",15.1,18.1,,34.5,254,575,20,1018.12,36,241
"2018-12-10 15:02:07+00",16.6,19.6,,34.7,194,677,-7,1018.22,36.4,255.8
"2018-12-10 15:07:07+00",14.6,17.6,,34.8,160,593,14,1018.26,36.5,218.2
"2018-12-10 15:12:07+00",16.9,19.9,,35.1,207,689,-10,1018.26,36.7,246.6
"2018-12-10 15:17:07+00",15.5,18.5,,35.1,192,630,-2,1018.26,36.6,80.4
"2018-12-10 15:22:07+00",17.4,20.4,,35.2,262,679,-6,1018.35,36.5,136.5
"2018-12-10 15:27:07+00",16.3,21.3,,35.5,180,679,9,1018.37,36.8,80.2
"2018-12-10 15:32:07+00",19.3,22.3,,35.2,248,766,-25,1018.36,36.4,141.7
"2018-12-10 15:37:07+00",15.8,18.8,,35.3,227,630,-10,1018.45,36.4,124.1
"2018-12-10 15:42:07+00",13.8,16.8,,35.3,195,560,5,1018.57,36.4,116.1
"2018-12-10 15:47:07+00",12.8,15.8,,35.5,264,489,9,1018.53,36.5,228.5
"2018-12-10 15:52:07+00",20.2,22.2,,36.2,461,739,3,1018.53,37.3,244.6
"2018-12-10 15:57:07+00",21.4,26.4,,36.4,451,803,18,1018.51,37.7,258.7
"2018-12-10 16:02:07+00",24.3,28.3,,36.3,570,890,10,1018.46,37.7,175.4
"2018-12-10 16:07:07+00",18.5,21.5,,36.3,405,681,21,1018.36,37.2,127.7
"2018-12-10 16:12:07+00",18.7,24.7,,36.4,423,677,18,1018.42,37.6,287.3
"2018-12-10 16:17:07+00",21.6,25.6,,36.4,473,809,10,1018.37,37.8,151.1
"2018-12-10 16:22:07+00",20.6,23.6,,36.4,465,752,31,1018.33,37.8,300.6
"2018-12-10 16:27:07+00",19.7,22.7,,36.5,472,706,20,1018.31,38,217.5
"2018-12-10 16:32:07+00",22.0,25.0,,36.3,516,816,4,1018.15,37.9,243.2
"2018-12-10 16:37:07+00",22.2,27.2,,36.4,475,823,13,1018.16,37.9,180.9
"2018-12-10 16:42:07+00",20.6,23.6,,36.5,492,745,7,1018.03,38,251.9
"2018-12-10 16:47:07+00",18.9,22.9,,36.7,489,635,20,1018.04,38.4,276.9
"2018-12-10 16:52:07+00",17.9,21.9,,36.7,410,644,18,1018.04,38.5,314.2
"2018-12-10 16:57:07+00",21.5,24.5,,36.7,523,759,4,1018,38.5,211
"2018-12-10 17:02:07+00",18.8,21.8,,36.4,447,674,7,1018.1,38,235.5
"2018-12-10 17:07:07+00",19.3,22.3,,36.3,486,667,-4,1018.04,37.6,135.6
"2018-12-10 17:12:07+00",20.3,23.3,,36.7,432,760,0,1018.04,38.3,335.5
"2018-12-10 17:17:07+00",18.5,21.5,,36.6,396,677,2,1017.84,38.5,306
"2018-12-10 17:22:07+00",19.8,22.8,,36.8,424,743,5,1017.86,38.9,288.8
"2018-12-10 17:27:07+00",19.3,22.3,,36.6,482,677,8,1017.83,38.4,281.4
"2018-12-10 17:32:07+00",18.2,21.2,,36.5,485,588,21,1017.74,38.4,186
"2018-12-10 17:37:07+00",21.8,23.8,,36.4,575,703,-3,1017.78,38,217.8
"2018-12-10 17:42:07+00",17.6,18.6,,36.7,380,660,15,1017.78,38.5,262.7
"2018-12-10 17:47:07+00",16.8,20.8,,36.7,493,526,27,1017.9,38.1,127.3
"2018-12-10 17:52:07+00",17.7,20.7,,36.4,490,561,18,1017.87,37.7,161.9
"2018-12-10 17:57:07+00",17.4,19.4,,36.6,458,586,9,1018.01,37.7,118.3
"2018-12-10 18:02:07+00",19.7,22.7,,36.3,564,577,-1,1017.98,37.3,79.8
"2018-12-10 18:07:07+00",15.0,17.0,,36.4,492,416,31,1018.04,37.1,86.5
"2018-12-10 18:12:07+00",15.9,17.9,,36.5,515,447,30,1017.89,37.1,98.2
"2018-12-10 18:17:07+00",16.5,20.5,,36.5,510,487,35,1017.81,37.2,80
"2018-12-10 18:22:07+00",18.7,20.7,,36.4,572,540,-1,1017.76,36.9,97.8
"2018-12-10 18:27:07+00",17.3,20.3,,36.4,610,455,31,1017.68,36.9,81.2
"2018-12-10 18:32:07+00",19.3,21.3,,36.4,688,505,29,1017.72,36.8,75.3
"2018-12-10 18:37:07+00",17.3,19.3,,36.4,602,460,32,1017.74,36.9,95.3
"2018-12-10 18:42:07+00",17.3,19.3,,36.4,557,489,36,1017.64,36.9,100.1
"2018-12-10 18:47:07+00",18.6,21.6,,36.4,615,516,24,1017.69,37,100.1
"2018-12-10 18:52:07+00",14.5,17.5,,36.4,481,402,54,1017.66,36.9,75.2
"2018-12-10 18:57:07+00",16.1,18.1,,36.4,517,449,25,1017.61,36.9,80.2
"2018-12-10 19:02:07+00",19.3,21.3,,36.4,646,535,27,1017.6,36.9,88.9
"2018-12-10 19:07:07+00",17.8,19.8,,36.4,572,502,15,1017.59,37,87.1
"2018-12-10 19:12:07+00",18.5,20.5,,36.4,621,499,44,1017.49,37,113.4
"2018-12-10 19:17:07+00",17.7,19.7,,36.5,613,468,19,1017.51,37.1,87.8
"2018-12-10 19:22:07+00",18.4,20.4,,36.5,643,483,25,1017.51,37,72.9
"2018-12-10 19:27:07+00",17.6,19.6,,36.4,559,498,28,1017.57,36.9,64.2
"2018-12-10 19:32:07+00",17.6,19.6,,36.4,555,501,19,1017.61,36.8,57.9
"2018-12-10 19:37:07+00",17.6,19.6,,36.3,614,467,34,1017.63,36.7,57.5
"2018-12-10 19:42:07+00",16.7,19.7,,36.4,561,451,26,1017.5,36.6,62.7
"2018-12-10 19:47:07+00",15.6,18.6,,36.4,529,425,33,1017.6,36.7,55.6
"2018-12-10 19:52:07+00",15.5,18.5,,36.4,503,426,35,1017.76,36.6,51.5
"2018-12-10 19:57:07+00",16.7,18.7,,36.5,594,430,26,1017.84,36.7,53.6
"2018-12-10 20:02:07+00",15.3,18.3,,36.6,541,395,24,1017.87,36.8,83.7
"2018-12-10 20:07:07+00",14.7,16.7,,36.6,545,354,45,1017.81,37.1,86.5
"2018-12-10 20:12:07+00",15.0,18.0,,36.6,503,409,35,1017.76,37.1,75.5
"2018-12-10 20:17:07+00",14.2,17.2,,36.7,479,379,40,1017.83,37.2,89.2
"2018-12-10 20:22:07+00",14.3,17.3,,36.7,502,371,24,1017.94,37.1,86.9
"2018-12-10 20:27:07+00",14.8,16.8,,36.7,494,409,27,1017.95,37.2,86.1
"2018-12-10 20:32:07+00",18.5,20.5,,36.7,583,526,4,1017.88,37.2,78.7
"2018-12-10 20:37:07+00",17.0,19.0,,36.7,539,483,20,1018.06,37.1,65.3
"2018-12-10 20:42:07+00",12.1,14.1,,36.7,395,333,34,1018.18,37,48.4
"2018-12-10 20:47:07+00",15.5,17.5,,36.6,453,456,9,1018.13,36.7,33.3
"2018-12-10 20:52:07+00",14.7,16.7,,36.5,453,422,-7,1018.19,36.5,37.9
"2018-12-10 20:57:07+00",13.2,15.2,,36.4,482,327,6,1018.25,36.4,0.5
"2018-12-10 21:02:07+00",11.7,13.7,,36.2,418,301,24,1018.3,36,0
"2018-12-10 21:07:07+00",13.2,16.2,,36.1,451,351,21,1018.37,35.7,0
"2018-12-10 21:12:07+00",11.8,13.8,,36,399,317,28,1018.23,35.5,0
"2018-12-10 21:17:07+00",14.0,16.0,,36,482,370,26,1018.34,35.3,0
"2018-12-10 21:22:07+00",11.8,13.8,,36,393,322,26,1018.36,35.3,0
"2018-12-10 21:27:07+00",11.2,12.2,,35.8,356,316,23,1018.35,35.1,0
"2018-12-10 21:32:07+00",12.4,14.4,,35.7,384,353,11,1018.29,34.9,0
"2018-12-10 21:37:07+00",11.4,13.4,,35.6,331,342,12,1018.22,34.7,0
"2018-12-10 21:42:07+00",10.7,11.7,,35.4,317,311,12,1018.39,34.4,0
"2018-12-10 21:47:07+00",11.0,13.0,,35.2,277,359,6,1018.35,34.1,0
"2018-12-10 21:52:07+00",10.7,11.7,,35.1,258,372,8,1018.53,33.7,0
"2018-12-10 21:57:07+00",10.8,12.8,,34.9,256,382,7,1018.46,33.4,0
"2018-12-10 22:02:07+00",11.2,12.2,,34.8,279,373,6,1018.54,33.2,0
"2018-12-10 22:07:07+00",11.1,12.1,,34.8,270,384,8,1018.58,33.1,0
"2018-12-10 22:12:07+00",10.1,11.1,,34.6,229,364,5,1018.69,32.7,0
"2018-12-10 22:17:07+00",9.8,10.8,,34.6,198,368,4,1018.65,32.4,0
"2018-12-10 22:22:07+00",9.7,10.7,,34.6,189,365,3,1018.64,32.2,0
"2018-12-10 22:27:07+00",8.9,8.9,,34.6,168,336,1,1018.7,32,0
"2018-12-10 22:32:07+00",9.6,10.6,,34.6,169,371,1,1018.7,31.8,0
"2018-12-10 22:37:07+00",9.8,10.8,,34.4,178,368,2,1018.53,31.5,0
"2018-12-10 22:42:07+00",10.2,11.2,,34.3,150,385,-2,1018.54,31.3,0
"2018-12-10 22:47:07+00",9.8,10.8,,34.3,149,373,-2,1018.64,31.3,0
"2018-12-10 22:52:07+00",8.6,9.6,,34.2,95,338,2,1018.6,31.1,0
"2018-12-10 22:57:07+00",8.6,9.6,,34.3,96,336,1,1018.63,30.8,0
"2018-12-10 23:02:07+00",8.8,9.8,,34.5,120,333,-1,1018.59,30.8,0
"2018-12-10 23:07:07+00",8.1,9.1,,34.4,118,304,1,1018.72,30.8,0
"2018-12-10 23:12:07+00",8.0,10.0,,34.1,83,320,-2,1018.59,30.7,0
"2018-12-10 23:17:07+00",8.1,9.1,,33.7,80,336,1,1018.49,30.5,0
"2018-12-10 23:22:07+00",9.2,10.2,,33.6,66,384,3,1018.53,30.1,0
"2018-12-10 23:27:07+00",9.5,9.5,,33.5,51,397,6,1018.61,29.7,0
"2018-12-10 23:32:07+00",9.8,9.8,,33.4,52,411,8,1018.56,29.5,0
"2018-12-10 23:37:07+00",9.7,10.7,,33.1,46,410,4,1018.57,29.3,0
"2018-12-10 23:42:07+00",9.6,10.6,,33.1,54,408,7,1018.56,29.2,0
"2018-12-10 23:47:07+00",8.7,9.7,,33.1,29,365,7,1018.67,29.2,0
"2018-12-10 23:52:07+00",7.0,7.0,,32.9,18,292,5,1018.77,29.1,0
"2018-12-10 23:57:07+00",6.1,7.1,,32.5,-24,254,10,1018.79,29,0
